TimeAKDT,TemperatureF,Dew PointF,Humidity,Sea Level PressureIn,VisibilityMPH,Wind Direction,Wind SpeedMPH,Gust SpeedMPH,PrecipitationIn,Events,Conditions,WindDirDegrees,DateUTC
12:16 AM,-7.6,-14.8,71,30.27,-9999.0,NNE,3.5,-,N/A,,Clear,20,2013-03-31 08:16:00
12:36 AM,-7.6,-14.8,71,30.28,-9999.0,NNE,3.5,-,N/A,,Clear,20,2013-03-31 08:36:00
12:56 AM,-7.6,-16.6,65,30.28,-9999.0,NNE,3.5,-,N/A,,Clear,20,2013-03-31 08:56:00
1:16 AM,-9.4,-20.2,59,30.29,-9999.0,North,3.5,-,N/A,,Clear,360,2013-03-31 09:16:00
1:36 AM,-9.4,-16.6,71,30.29,-9999.0,North,3.5,-,N/A,,Clear,360,2013-03-31 09:36:00
1:56 AM,-9.4,-18.4,65,30.28,-9999.0,North,3.5,-,N/A,,Clear,10,2013-03-31 09:56:00
2:16 AM,-9.4,-16.6,71,30.29,-9999.0,NNE,5.8,-,N/A,,Clear,20,2013-03-31 10:16:00
2:36 AM,-11.2,-18.4,70,30.29,-9999.0,NE,5.8,-,N/A,,Clear,50,2013-03-31 10:36:00
2:56 AM,-9.4,-18.4,65,30.29,-9999.0,East,4.6,-,N/A,,Clear,80,2013-03-31 10:56:00
3:16 AM,-9.4,-16.6,71,30.29,-9999.0,East,3.5,-,N/A,,Clear,80,2013-03-31 11:16:00
3:36 AM,-11.2,-20.2,64,30.29,-9999.0,East,3.5,-,N/A,,Clear,90,2013-03-31 11:36:00
3:56 AM,-11.2,-20.2,64,30.30,-9999.0,East,3.5,-,N/A,,Clear,80,2013-03-31 11:56:00
4:16 AM,-11.2,-22.0,59,30.29,-9999.0,East,6.9,-,N/A,,Clear,100,2013-03-31 12:16:00
4:36 AM,-9.4,-16.6,71,30.29,-9999.0,ESE,9.2,-,N/A,,Clear,110,2013-03-31 12:36:00
4:56 AM,-7.6,-14.8,71,30.29,-9999.0,ESE,10.4,-,N/A,,Clear,120,2013-03-31 12:56:00
5:16 AM,-7.6,-14.8,71,30.30,-9999.0,ESE,9.2,-,N/A,,Clear,120,2013-03-31 13:16:00
5:36 AM,-7.6,-16.6,65,30.30,-9999.0,ESE,9.2,-,N/A,,Clear,110,2013-03-31 13:36:00
5:56 AM,-7.6,-16.6,65,30.30,-9999.0,ESE,10.4,-,N/A,,Clear,120,2013-03-31 13:56:00
6:16 AM,-7.6,-14.8,71,30.31,-9999.0,ESE,9.2,-,N/A,,Clear,120,2013-03-31 14:16:00
6:36 AM,-7.6,-16.6,65,30.30,-9999.0,ESE,10.4,-,N/A,,Clear,110,2013-03-31 14:36:00
6:56 AM,-7.6,-16.6,65,30.31,-9999.0,ESE,9.2,-,N/A,,Clear,120,2013-03-31 14:56:00
7:16 AM,-7.6,-16.6,65,30.31,-9999.0,ESE,9.2,-,N/A,,Clear,120,2013-03-31 15:16:00
7:36 AM,-9.4,-18.4,65,30.31,-9999.0,ESE,8.1,-,N/A,,Clear,110,2013-03-31 15:36:00
7:56 AM,-9.4,-18.4,65,30.31,-9999.0,ESE,9.2,-,N/A,,Clear,110,2013-03-31 15:56:00
8:16 AM,-9.4,-16.6,71,30.31,-9999.0,ESE,8.1,-,N/A,,Clear,110,2013-03-31 16:16:00
8:36 AM,-9.4,-16.6,71,30.31,-9999.0,ESE,8.1,-,N/A,,Clear,120,2013-03-31 16:36:00
8:56 AM,-11.2,-20.2,64,30.31,-9999.0,East,8.1,-,N/A,,Clear,100,2013-03-31 16:56:00
9:16 AM,-11.2,-22.0,59,30.31,-9999.0,East,8.1,-,N/A,,Clear,100,2013-03-31 17:16:00
9:36 AM,-11.2,-18.4,70,30.31,-9999.0,ESE,6.9,-,N/A,,Clear,110,2013-03-31 17:36:00
9:56 AM,-9.4,-16.6,71,30.31,-9999.0,ESE,6.9,-,N/A,,Clear,110,2013-03-31 17:56:00
10:16 AM,-9.4,-16.6,71,30.31,-9999.0,ESE,8.1,-,N/A,,Clear,110,2013-03-31 18:16:00
10:36 AM,-7.6,-16.6,65,30.31,-9999.0,East,6.9,-,N/A,,Clear,100,2013-03-31 18:36:00
10:56 AM,-7.6,-16.6,65,30.31,-9999.0,East,5.8,-,N/A,,Clear,100,2013-03-31 18:56:00
11:16 AM,-7.6,-14.8,71,30.32,-9999.0,East,8.1,-,N/A,,Clear,100,2013-03-31 19:16:00
11:36 AM,-5.8,-11.2,77,30.32,-9999.0,ESE,9.2,-,N/A,,Clear,110,2013-03-31 19:36:00
11:56 AM,-5.8,-13.0,71,30.31,-9999.0,East,8.1,-,N/A,,Clear,100,2013-03-31 19:56:00
12:16 PM,-4.0,-11.2,71,30.32,-9999.0,ESE,8.1,-,N/A,,Clear,110,2013-03-31 20:16:00
12:36 PM,-4.0,-11.2,71,30.32,-9999.0,East,9.2,-,N/A,,Partly Cloudy,90,2013-03-31 20:36:00
12:56 PM,-4.0,-11.2,71,30.32,-9999.0,East,8.1,-,N/A,,Mostly Cloudy,90,2013-03-31 20:56:00
1:16 PM,-2.2,-9.4,71,30.32,-9999.0,East,9.2,-,N/A,,Overcast,90,2013-03-31 21:16:00
1:36 PM,-2.2,-9.4,71,30.32,-9999.0,East,10.4,-,N/A,,Overcast,90,2013-03-31 21:36:00
1:56 PM,-0.4,-7.6,72,30.32,-9999.0,East,11.5,-,N/A,,Overcast,100,2013-03-31 21:56:00
2:16 PM,-0.4,-7.6,72,30.32,-9999.0,East,11.5,-,N/A,,Overcast,100,2013-03-31 22:16:00
2:36 PM,-0.4,-7.6,72,30.32,-9999.0,ESE,10.4,-,N/A,,Mostly Cloudy,110,2013-03-31 22:36:00
2:56 PM,-0.4,-5.8,78,30.32,-9999.0,ESE,10.4,-,N/A,,Mostly Cloudy,110,2013-03-31 22:56:00
3:16 PM,1.4,-5.8,72,30.32,-9999.0,ESE,10.4,-,N/A,,Mostly Cloudy,110,2013-03-31 23:16:00
3:36 PM,1.4,-5.8,72,30.32,-9999.0,ESE,10.4,-,N/A,,Scattered Clouds,110,2013-03-31 23:36:00
3:56 PM,1.4,-5.8,72,30.32,-9999.0,ESE,9.2,-,N/A,,Mostly Cloudy,110,2013-03-31 23:56:00
4:16 PM,1.4,-5.8,72,30.31,-9999.0,East,10.4,-,N/A,,Mostly Cloudy,100,2013-04-01 00:16:00
4:36 PM,1.4,-5.8,72,30.31,-9999.0,East,8.1,-,N/A,,Scattered Clouds,100,2013-04-01 00:36:00
5:16 PM,1.4,-5.8,72,30.30,-9999.0,East,9.2,-,N/A,,Mostly Cloudy,100,2013-04-01 01:16:00
5:36 PM,3.2,-5.8,66,30.30,-9999.0,ESE,8.1,-,N/A,,Overcast,120,2013-04-01 01:36:00
5:56 PM,3.2,-2.2,78,30.31,-9999.0,SE,6.9,-,N/A,,Scattered Clouds,130,2013-04-01 01:56:00
6:16 PM,5.0,-0.4,78,30.31,-9999.0,SE,6.9,-,N/A,,Scattered Clouds,130,2013-04-01 02:16:00
6:36 PM,3.2,-2.2,78,30.31,-9999.0,East,5.8,-,N/A,,Mostly Cloudy,100,2013-04-01 02:36:00
6:56 PM,3.2,-4.0,72,30.31,-9999.0,East,5.8,-,N/A,,Mostly Cloudy,90,2013-04-01 02:56:00
7:16 PM,3.2,-4.0,72,30.30,-9999.0,East,5.8,-,N/A,,Mostly Cloudy,90,2013-04-01 03:16:00
7:36 PM,1.4,-5.8,72,30.31,-9999.0,East,4.6,-,N/A,,Partly Cloudy,80,2013-04-01 03:36:00
8:16 PM,-0.4,-5.8,78,30.30,-9999.0,ENE,6.9,-,N/A,,Clear,60,2013-04-01 04:16:00
8:36 PM,-0.4,-7.6,72,30.29,-9999.0,ENE,8.1,-,N/A,,Clear,60,2013-04-01 04:36:00
8:56 PM,-2.2,-11.2,66,30.29,-9999.0,ENE,8.1,-,N/A,,Clear,60,2013-04-01 04:56:00
9:16 PM,-2.2,-9.4,71,30.29,-9999.0,ENE,8.1,-,N/A,,Clear,60,2013-04-01 05:16:00
9:36 PM,-2.2,-11.2,66,30.30,-9999.0,ENE,8.1,-,N/A,,Clear,60,2013-04-01 05:36:00
9:56 PM,-4.0,-11.2,71,30.29,-9999.0,ENE,8.1,-,N/A,,Clear,60,2013-04-01 05:56:00
10:16 PM,-2.2,-11.2,66,30.29,-9999.0,ENE,8.1,-,N/A,,Clear,60,2013-04-01 06:16:00
10:56 PM,-0.4,-7.6,72,30.29,-9999.0,ENE,4.6,-,N/A,,Clear,70,2013-04-01 06:56:00
11:16 PM,-0.4,-7.6,72,30.29,-9999.0,ENE,4.6,-,N/A,,Clear,70,2013-04-01 07:16:00
11:36 PM,-0.4,-7.6,72,30.29,-9999.0,East,4.6,-,N/A,,Clear,80,2013-04-01 07:36:00